EN

Hourly Weather Ozdenizh

Today, 18 April, Sunday

Time Temperature Precipitation Wind Pressure Humidity
00:00 +5°C° 0 mm 1 mps 745 mmHg 95%
01:00 +4°C° 0 mm 2 mps 745 mmHg 95%
02:00 +4°C° 0 mm 2 mps 745 mmHg 95%
03:00 +3°C° 0 mm 2 mps 745 mmHg 95%
04:00 +3°C° 0 mm 2 mps 745 mmHg 95%
05:00 +4°C° 0 mm 1 mps 745 mmHg 95%
06:00 +5°C° 0 mm 1 mps 745 mmHg 91%
07:00 +6°C° 0 mm 1 mps 745 mmHg 87%
08:00 +7°C° 0 mm 1 mps 745 mmHg 83%
09:00 +9°C° 0 mm 1 mps 745 mmHg 77%
10:00 +10°C° 0 mm 1 mps 745 mmHg 70%
11:00 +12°C° 0 mm 1 mps 745 mmHg 63%
12:00 +13°C° 0 mm 1 mps 744 mmHg 60%
13:00 +13°C° 0 mm 1 mps 744 mmHg 57%
14:00 +14°C° 0 mm 1 mps 744 mmHg 54%
15:00 +14°C° 0 mm 1 mps 744 mmHg 57%
16:00 +13°C° 0 mm 1 mps 744 mmHg 61%
17:00 +13°C° 0 mm 1 mps 744 mmHg 65%
18:00 +13°C° 0 mm 1 mps 744 mmHg 68%
19:00 +12°C° 0 mm 1 mps 744 mmHg 71%
20:00 +11°C° 0 mm 1 mps 744 mmHg 75%
21:00 +10°C° 0.2 mm 2 mps 744 mmHg 80%
22:00 +9°C° 0.2 mm 2 mps 744 mmHg 86%
23:00 +9°C° 0.2 mm 2 mps 744 mmHg 91%

Tomorrow, 19 April, Monday

Time Temperature Precipitation Wind Pressure Humidity
00:00 +8°C° 0.1 mm 2 mps 744 mmHg 93%
01:00 +7°C° 0.1 mm 2 mps 744 mmHg 94%
02:00 +6°C° 0.1 mm 2 mps 744 mmHg 96%
03:00 +5°C° 0 mm 3 mps 744 mmHg 96%
04:00 +5°C° 0 mm 3 mps 744 mmHg 97%
05:00 +4°C° 0 mm 3 mps 743 mmHg 97%
06:00 +5°C° 0 mm 3 mps 744 mmHg 95%
07:00 +5°C° 0 mm 4 mps 744 mmHg 92%
08:00 +6°C° 0 mm 4 mps 744 mmHg 90%
09:00 +6°C° 0 mm 4 mps 744 mmHg 87%
10:00 +6°C° 0 mm 4 mps 744 mmHg 84%
11:00 +7°C° 0 mm 4 mps 744 mmHg 81%
12:00 +7°C° 0 mm 4 mps 744 mmHg 80%
13:00 +7°C° 0 mm 4 mps 744 mmHg 80%
14:00 +7°C° 0 mm 4 mps 743 mmHg 79%
15:00 +9°C° 0 mm 3 mps 743 mmHg 78%
16:00 +9°C° 0 mm 2 mps 743 mmHg 78%
17:00 +9°C° 0 mm 2 mps 743 mmHg 77%
18:00 +9°C° 0 mm 2 mps 743 mmHg 77%
19:00 +9°C° 0 mm 3 mps 743 mmHg 77%
20:00 +8°C° 0 mm 3 mps 742 mmHg 77%
21:00 +8°C° 0 mm 3 mps 742 mmHg 79%
22:00 +7°C° 0 mm 3 mps 742 mmHg 80%
23:00 +7°C° 0 mm 3 mps 742 mmHg 82%

Day after tomorrow, 20 April, Tuesday

Time Temperature Precipitation Wind Pressure Humidity
00:00 +5°C° 0 mm 3 mps 742 mmHg 84%
01:00 +5°C° 0 mm 3 mps 742 mmHg 86%
02:00 +4°C° 0 mm 3 mps 741 mmHg 88%
03:00 +4°C° 0 mm 3 mps 741 mmHg 89%
04:00 +3°C° 0 mm 3 mps 741 mmHg 91%
05:00 +3°C° 0 mm 3 mps 741 mmHg 92%
06:00 +4°C° 0 mm 3 mps 741 mmHg 87%
07:00 +7°C° 0 mm 3 mps 741 mmHg 83%
08:00 +8°C° 0 mm 3 mps 741 mmHg 79%
09:00 +9°C° 0.2 mm 3 mps 741 mmHg 72%
10:00 +10°C° 0.2 mm 3 mps 741 mmHg 64%
11:00 +11°C° 0.2 mm 4 mps 741 mmHg 57%
12:00 +11°C° 0.1 mm 3 mps 740 mmHg 55%
13:00 +12°C° 0.1 mm 3 mps 740 mmHg 52%
14:00 +12°C° 0.1 mm 3 mps 740 mmHg 50%
15:00 +12°C° 0.1 mm 4 mps 740 mmHg 53%
16:00 +11°C° 0.1 mm 4 mps 740 mmHg 57%
17:00 +11°C° 0.1 mm 4 mps 739 mmHg 61%
18:00 +10°C° 0.1 mm 3 mps 740 mmHg 67%
19:00 +8°C° 0.1 mm 3 mps 740 mmHg 73%
20:00 +7°C° 0.1 mm 2 mps 740 mmHg 78%
21:00 +7°C° 0 mm 2 mps 740 mmHg 80%
22:00 +7°C° 0 mm 1 mps 740 mmHg 81%
23:00 +6°C° 0 mm 1 mps 740 mmHg 82%

21 April, Wednesday

Time Temperature Precipitation Wind Pressure Humidity
00:00 +6°C° 0 mm 1 mps 740 mmHg 84%
01:00 +5°C° 0 mm 1 mps 740 mmHg 85%
02:00 +5°C° 0 mm 1 mps 740 mmHg 87%
03:00 +4°C° 0 mm 2 mps 740 mmHg 87%
04:00 +4°C° 0 mm 2 mps 740 mmHg 88%
05:00 +4°C° 0 mm 2 mps 740 mmHg 89%
06:00 +6°C° 0 mm 2 mps 740 mmHg 85%
07:00 +7°C° 0 mm 3 mps 740 mmHg 82%
08:00 +8°C° 0 mm 3 mps 740 mmHg 79%
09:00 +9°C° 0.2 mm 3 mps 740 mmHg 73%
10:00 +10°C° 0.2 mm 4 mps 740 mmHg 67%
11:00 +11°C° 0.2 mm 4 mps 740 mmHg 62%
12:00 +11°C° 0.2 mm 4 mps 740 mmHg 59%
13:00 +12°C° 0.2 mm 4 mps 740 mmHg 56%
14:00 +13°C° 0.2 mm 5 mps 740 mmHg 54%
15:00 +13°C° 0.1 mm 5 mps 740 mmHg 54%
16:00 +13°C° 0.1 mm 5 mps 740 mmHg 54%
17:00 +13°C° 0.1 mm 5 mps 740 mmHg 54%
18:00 +11°C° 0 mm 4 mps 740 mmHg 60%
19:00 +10°C° 0 mm 3 mps 741 mmHg 67%
20:00 +8°C° 0 mm 2 mps 741 mmHg 73%
21:00 +8°C° 0 mm 2 mps 741 mmHg 76%
22:00 +7°C° 0 mm 3 mps 741 mmHg 79%
23:00 +7°C° 0 mm 3 mps 741 mmHg 83%

22 April, Thursday

Time Temperature Precipitation Wind Pressure Humidity
00:00 +5°C° 0 mm 3 mps 742 mmHg 85%
01:00 +5°C° 0 mm 3 mps 742 mmHg 87%
02:00 +5°C° 0 mm 3 mps 742 mmHg 89%
03:00 +5°C° 0 mm 3 mps 742 mmHg 91%
04:00 +5°C° 0 mm 3 mps 742 mmHg 92%
05:00 +5°C° 0 mm 3 mps 742 mmHg 94%
06:00 +7°C° 0 mm 3 mps 742 mmHg 88%
07:00 +8°C° 0 mm 3 mps 743 mmHg 83%
08:00 +10°C° 0 mm 3 mps 743 mmHg 78%
09:00 +11°C° 0 mm 3 mps 743 mmHg 71%
10:00 +12°C° 0 mm 3 mps 743 mmHg 63%
11:00 +14°C° 0 mm 3 mps 744 mmHg 55%
12:00 +14°C° 0.3 mm 3 mps 743 mmHg 55%
13:00 +14°C° 0.3 mm 3 mps 743 mmHg 55%
14:00 +14°C° 0.3 mm 3 mps 743 mmHg 55%
15:00 +14°C° 0.5 mm 3 mps 744 mmHg 59%
16:00 +14°C° 0.5 mm 2 mps 744 mmHg 62%
17:00 +14°C° 0.5 mm 2 mps 744 mmHg 66%
18:00 +13°C° 0.4 mm 2 mps 744 mmHg 73%
19:00 +10°C° 0.4 mm 2 mps 744 mmHg 80%
20:00 +9°C° 0.4 mm 2 mps 744 mmHg 88%
21:00 +8°C° 1 mm 3 mps 745 mmHg 89%
22:00 +8°C° 1 mm 3 mps 745 mmHg 91%
23:00 +6°C° 1 mm 4 mps 745 mmHg 93%

23 April, Friday

Time Temperature Precipitation Wind Pressure Humidity
00:00 +7°C° 0.1 mm 3 mps 745 mmHg 93%
01:00 +7°C° 0.1 mm 3 mps 745 mmHg 93%
02:00 +7°C° 0.1 mm 2 mps 745 mmHg 93%
03:00 +6°C° 0.1 mm 2 mps 745 mmHg 93%
04:00 +6°C° 0.1 mm 2 mps 745 mmHg 93%
05:00 +7°C° 0.1 mm 1 mps 745 mmHg 94%
06:00 +6°C° 0.9 mm 2 mps 745 mmHg 93%
07:00 +5°C° 0.9 mm 3 mps 745 mmHg 92%
08:00 +5°C° 0.9 mm 3 mps 746 mmHg 92%
09:00 +5°C° 1.2 mm 4 mps 746 mmHg 92%
10:00 +4°C° 1.2 mm 4 mps 746 mmHg 92%
11:00 +3°C° 1.2 mm 5 mps 746 mmHg 93%
12:00 +3°C° 1.9 mm 5 mps 747 mmHg 93%
13:00 +4°C° 1.9 mm 4 mps 747 mmHg 93%
14:00 +4°C° 1.9 mm 4 mps 747 mmHg 93%
15:00 +4°C° 0.3 mm 4 mps 747 mmHg 89%
16:00 +5°C° 0.3 mm 3 mps 747 mmHg 85%
17:00 +7°C° 0.3 mm 3 mps 747 mmHg 81%
18:00 +6°C° 0 mm 2 mps 747 mmHg 83%
19:00 +6°C° 0 mm 2 mps 747 mmHg 85%
20:00 +6°C° 0 mm 2 mps 747 mmHg 87%
21:00 +6°C° 0 mm 1 mps 747 mmHg 88%
22:00 +6°C° 0 mm 1 mps 747 mmHg 89%
23:00 +5°C° 0 mm 0 mps 748 mmHg 90%
Show more

We Need Your Consent

Meteoprog and our Service Providers may store and access personal data such as cookies, device identifiers or other similar technologies on your device and process such data to personalise content and ads, as well as provide social media features and to analyse the traffic.

  • Store and/or access information on your device

    Cookies, device identifiers or other information can be stored or accessed on your device for the purposes indicated above.

  • Personalised ads and content, ad and content measurement, audience insights, and products development

    Ads and content can be personalised based on a profile. More data can be added to better personalise ads and content. Ad and content performance can be measured. Insights about the audience who saw the ads and content can be derived. Such data can be used to develop or improve user’s experience, systems and software.

By clicking ‘I Agree’ you will allow the use of indicated cookies, device identifiers, web beacons or other similar technologies. Your settings can be changed in the browser on your device.

For certain purposes, legitimate interests may be relied on, rather than consent. You can read more about this in our Privacy and Cookie Policy.